FW1574 Weather Reports


Display with metric or nautical units.
time (UTC)temp
F
wind
direction
speed
MPH
gust
MPH
rain 1hr
in
rain 24hr
in
rain mn
in
humidity
%
barometer
mb
20260504211022 77 53 0.0 2.0 0.00 0.00 0.00 48 1011.9
20260504210521 77 86 0.0 5.0 0.00 0.00 0.00 50 1011.9
20260504210021 77 68 1.0 5.0 0.00 0.00 0.00 48 1011.9
20260504205521 77 226 0.0 2.0 0.00 0.00 0.00 52 1012.0
20260504205018 76 90 0.0 6.0 0.00 0.00 0.00 50 1012.1
20260504204519 76 78 2.0 6.0 0.00 0.00 0.00 48 1012.1
20260504204018 76 119 1.0 3.0 0.00 0.00 0.00 51 1012.2
20260504203517 76 180 0.0 2.0 0.00 0.00 0.00 50 1012.2
20260504203016 76 198 0.0 4.0 0.00 0.00 0.00 46 1012.3
20260504202517 77 232 1.0 4.0 0.00 0.00 0.00 46 1012.3
20260504202014 77 229 1.0 3.0 0.00 0.00 0.00 48 1012.3
20260504201521 76 272 1.0 4.0 0.00 0.00 0.00 48 1012.3
20260504201017 76 249 2.0 4.0 0.00 0.00 0.00 48 1012.4
20260504200513 76 182 1.0 7.0 0.00 0.00 0.00 48 1012.4
20260504200015 76 78 3.0 7.0 0.00 0.00 0.00 46 1012.6
20260504195512 76 73 0.0 3.0 0.00 0.00 0.00 48 1012.6
20260504195011 76 265 0.0 4.0 0.00 0.00 0.00 48 1012.7
20260504194514 77 175 1.0 5.0 0.00 0.00 0.00 48 1012.8
20260504194013 76 261 0.0 7.0 0.00 0.00 0.00 47 1012.8
20260504193509 76 75 1.0 6.0 0.00 0.00 0.00 48 1012.9
20260504193009 76 45 0.0 2.0 0.00 0.00 0.00 48 1013.0
20260504192507 76 99 0.0 2.0 0.00 0.00 0.00 47 1013.1
20260504192006 76 231 0.0 3.0 0.00 0.00 0.00 48 1013.2
20260504191506 76 236 1.0 4.0 0.00 0.00 0.00 45 1013.4
20260504191007 77 257 2.0 4.0 0.00 0.00 0.00 47 1013.4
20260504190504 77 245 1.0 3.0 0.00 0.00 0.00 47 1013.5
20260504190003 77 241 1.0 3.0 0.00 0.00 0.00 48 1013.6
20260504185506 77 236 1.0 2.0 0.00 0.00 0.00 48 1013.6
20260504185001 76 214 1.0 7.0 0.00 0.00 0.00 47 1013.7
20260504184608 76 207 3.0 7.0 0.00 0.00 0.00 47 1013.6
20260504184103 76 158 1.0 4.0 0.00 0.00 0.00 47 1013.8
20260504183604 77 234 2.0 4.0 0.00 0.00 0.00 48 1013.8
20260504183059 76 217 0.0 6.0 0.00 0.00 0.00 49 1013.9
20260504182559 76 87 2.0 6.0 0.00 0.00 0.00 50 1013.8
20260504182056 76 229 0.0 3.0 0.00 0.00 0.00 49 1014.1
20260504181556 76 221 2.0 3.0 0.00 0.00 0.00 49 1014.0
20260504181055 75 202 0.0 3.0 0.00 0.00 0.00 49 1014.1
20260504180553 75 229 1.0 3.0 0.00 0.00 0.00 49 1014.2
20260504180053 75 250 1.0 2.0 0.00 0.00 0.00 50 1014.2
20260504175555 75 122 1.0 3.0 0.00 0.00 0.00 51 1014.4
20260504175052 74 234 1.0 3.0 0.00 0.00 0.00 50 1014.4
20260504174600 74 238 1.0 3.0 0.00 0.00 0.00 50 1014.5
20260504174049 74 240 1.0 3.0 0.00 0.00 0.00 51 1014.5
20260504173548 74 230 1.0 3.0 0.00 0.00 0.00 50 1014.6
20260504173051 74 143 1.0 3.0 0.00 0.00 0.00 51 1014.8
20260504172546 73 286 1.0 3.0 0.00 0.00 0.00 49 1014.8
20260504172048 73 204 1.0 3.0 0.00 0.00 0.00 50 1014.9
20260504171543 73 165 0.0 3.0 0.00 0.00 0.00 51 1015.0
20260504171046 73 179 0.0 4.0 0.00 0.00 0.00 50 1015.1
20260504170542 73 240 1.0 4.0 0.00 0.00 0.00 52 1015.2
20260504151019 66 247 1.0 3.0 0.00 0.00 0.00 57 1016.7
20260504150518 66 252 1.0 3.0 0.00 0.00 0.00 59 1016.8